Regional Weather Roundup
Issued by NWS

Home | Current Version | Previous Version | Graphics & Text | Print | Product List | Glossary Off
Versions: 1 2 3 4 5 6 7 8 9 10 11 12 13 14 15 16 17 18 19 20 21 22 23 24 25 26 27 28 29 30 31 32 33 34 35 36 37 38 39 40 41 42 43 44 45 46 47 48 49 50

000
ASUS43 KMKX 250859
RWRWI

WISCONSIN REGIONAL WEATHER ROUNDUP
NATIONAL WEATHER SERVICE MILWAUKEE/SULLIVAN WI
400 AM CDT THU MAY 25 2017

NOTE: "FAIR" INDICATES FEW OR NO CLOUDS BELOW 12,000 FEET WITH NO
SIGNIFICANT WEATHER AND/OR OBSTRUCTIONS TO VISIBILITY.

WIZ001-002-006>008-014>016-023>028-251000-
NORTHWEST WISCONSIN

CITY           SKY/WX    TMP DP  RH WIND       PRES   REMARKS
SUPERIOR ARPT  NOT AVBL
ASHLAND        FOG       37  37 100 CALM      29.76S VSB 1
HAYWARD        MOCLDY    43  41  93 N3        29.72F
SIREN          PTCLDY    44  43  93 CALM      29.73R
CUMBERLAND     MOCLDY    46  45  93 CALM      29.71S
RICE LAKE      CLOUDY    51  47  87 CALM      29.72F
CHETEK         CLOUDY    52  48  87 E3        29.71S
LADYSMITH      CLOUDY    51  48  89 CALM      29.73F
EAU CLAIRE     NOT AVBL
MENOMONIE      CLOUDY    50  48  93 CALM      29.70S
NEW RICHMOND   CLEAR     44  43  98 CALM      29.71S
OSCEOLA        CLOUDY    47  47 100 E3        29.74S
$$

WIZ003>005-009-010-017-018-251000-
NORTH CENTRAL WISCONSIN

CITY           SKY/WX    TMP DP  RH WIND       PRES   REMARKS
MANITOWISH WTR CLOUDY    47  47 100 CALM      29.74R
ARBOR VITAE    PTCLDY    45  44  94 CALM      29.73S
WOODRUFF       PTCLDY    45  44  94 CALM      29.73S
RHINELANDER    CLOUDY    49  46  90 NE3       29.73S
EAGLE RIVER    CLOUDY    47  46  96 N5        29.74R
LAND O LAKES   CLOUDY    47  46  97 CALM      29.76R
PHILLIPS       CLOUDY    49  48  97 NE3       29.72F
TOMAHAWK       FOG       42  41  97 CALM      29.73S VSB 1
MEDFORD        CLEAR     44  43  97 NE5       29.70F
MERRILL        MOCLDY    45  45 100 CALM      29.71F
$$

WIZ029-030-035-036-043>047-251000-
CENTRAL WISCONSIN

CITY           SKY/WX    TMP DP  RH WIND       PRES   REMARKS
WAUSAU         CLOUDY    50  48  93 N5        29.69S
MOSINEE        PTCLDY    46  46 100 N7        29.71S
MARSHFIELD     CLEAR     47  45  93 NE5       29.69S
STEVENS POINT  CLEAR     45  45 100 N3        29.70R
WAUPACA        CLEAR     50  49  95 NW3       29.68S
WAUTOMA        CLOUDY    52  49  89 N8        29.68R
WISC RAPIDS    CLOUDY    52  49  89 NE8       29.70S
CAMP DOUGLAS   NOT AVBL
$$

WIZ011>013-019>022-031-037>040-048>050-251000-
NORTHEAST WISCONSIN

CITY           SKY/WX    TMP DP  RH WIND       PRES   REMARKS
ANTIGO         MOCLDY    46  46  99 NE8       29.71S
SHAWANO        CLOUDY    53  48  85 N6        29.69R
OCONTO         MOCLDY    49  47  90 N5        29.66S
STURGEON BAY   MOCLDY    50  48  93 N8        29.66S
GREEN BAY      MOCLDY    48  48 100 N7        29.66R
MANITOWOC      NOT AVBL
APPLETON       MOCLDY    46  46 100 N8        29.65R
CLINTONVILLE   PTCLDY    48  46  93 N6        29.68R
OSHKOSH        CLOUDY    52  49  89 N9        29.65R
$$

WIZ032>034-041-042-053>061-251000-
SOUTHWEST WISCONSIN

CITY           SKY/WX    TMP DP  RH WIND       PRES   REMARKS
LA CROSSE      FOG       49  48  97 CALM      29.69S VSB 3/4
SPARTA           N/A     44  44 100 CALM      29.70S FOG
VIROQUA        CLOUDY    51  49  93 MISG      29.69R
BOSCOBEL       CLOUDY    55  49  80 N6        29.68S
PRAIRIE DU CHI CLOUDY    50  48  92 CALM      29.68S
PLATTEVILLE    CLOUDY    52  51  98 N9        29.67R
$$

WIZ056-057-062-063-064-067-068-251000-
SOUTH CENTRAL WISCONSIN

CITY           SKY/WX    TMP DP  RH WIND       PRES   REMARKS
REEDSBURG      CLOUDY    53  51  94 N7        29.67S
BARABOO/DELLS  CLOUDY    53  48  85 N3        29.67S
LONE ROCK      NOT AVBL
MINERAL POINT  CLOUDY    54  52  94 N9        29.66R
MADISON        CLOUDY    52  50  93 N9        29.64R
MIDDLETON      CLOUDY    54  51  90 N8        29.65S
WATERTOWN      CLOUDY    52  52 100 N6        29.62S
MONROE         CLOUDY    52  50  93 N10G16    29.63R
JANESVILLE     CLOUDY    54  52  94 N7        29.61S
$$

WIZ051-052-058>065-066-070>072-251000-
SOUTHEAST WISCONSIN

CITY           SKY/WX    TMP DP  RH WIND       PRES   REMARKS
MILWAUKEE      PTCLDY    53  50  89 N13G22    29.59R
WAUKESHA       CLOUDY    50  48  93 N7        29.61S
MILWAUKEE/TIMM   N/A     52  46  82 N8        29.61R
RACINE         CLOUDY    51  47  86 N16G25    29.59S
KENOSHA        PTCLDY    52  49  89 N13G21    29.57S
FOND DU LAC    CLOUDY    54  49  83 N14       29.65R
SHEBOYGAN      PTCLDY    52  51  97 N13       29.61S
WEST BEND      CLOUDY    52  50  93 N10       29.61S
JUNEAU         CLOUDY    52  49  92 N12       29.64S
$$

LSZ147-162-251000-
LAKE SUPERIOR

STATION/POSITION TIME  TEMP    WIND        PRES    WAVE
                       AIR SEA DIR/SP/G            HT/PER
                 (UTC) (F)     (DEG/KT/KT) (MB)    (FT/S)
$$

LMZ867-665-643>646-251000-
LAKE MICHIGAN

STATION/POSITION TIME  TEMP    WIND        PRES    WAVE
                       AIR SEA DIR/SP/G            HT/PER
                 (UTC) (F)     (DEG/KT/KT) (MB)    (FT/S)
$$

TC  - TEMPERATURE IN CELSIUS
VSB - VISIBILITY IN STATUTE MILES
WCI - WIND CHILL INDEX
HX  - HEAT INDEX




USA.gov is the U.S. government's official web portal to all federal, state and local government web resources and services.